Location: Elstree
(51.6403°N, 0.2969°W)
Time: 14:14:35
(UTC+00:00)

SJ 16-02 - Pass Details

Date: 22 June 2021
Orbit: 606 x 616 km, 75.0° (Epoch: 29 July)

Event Time Altitude Azimuth Distance (km) Brightness Sun altitude
Rises 23:37:32 0° 333° (NNW) 2,877 6.2 -14.7°
Reaches altitude 10° 23:39:50 10° 328° (NNW) 1,968 5.0 -14.8°
Maximum altitude 23:44:04 51° 253° (WSW) 772 1.7 -14.8°
Enters shadow 23:46:20 25° 189° (S) 1,235 2.3 -14.8°
